Temp
-13 -13 -14 -14 -14 -14 -14 -14 -14 -14 -15 -15 -15 -15 -16 -16 -16 -17 -17 -18 -19 -20 -20 -19 -20 -20 -20 -20 -20 -20 -20 -20
-14 -14 -14 -14 -14 -14 -14 -14 -14 -15 -15 -15 -16 -16 -16 -17 -17 -17 -18 -19 -20 -20 -20 -20 -20 -20 -20 -20 -21 -21 -21 -21
-14 -14 -14 -14 -15 -14 -14 -14 -15 -15 -15 -16 -16 -16 -17 -17 -18 -18 -19 -20 -20 -20 -20 -20 -21 -21 -21 -22 -22 -22 -23 -23
-14 -14 -15 -14 -14 -14 -14 -15 -15 -16 -16 -16 -16 -17 -18 -18 -19 -20 -20 -20 -20 -21 -21 -21 -22 -22 -23 -23 -23 -24 -24 -25
-14 -14 -15 -14 -14 -14 -15 -15 -16 -16 -16 -17 -17 -18 -18 -19 -20 -21 -21 -21 -21 -21 -22 -22 -23 -23 -24 -24 -24 -25 -26 -26
-14 -14 -14 -14 -14 -14 -15 -16 -16 -16 -17 -17 -18 -18 -19 -20 -21 -21 -21 -21 -22 -22 -23 -24 -24 -25 -25 -26 -26 -27 -27 -27
-14 -14 -14 -14 -14 -15 -16 -16 -16 -17 -17 -18 -18 -19 -20 -21 -21 -21 -21 -22 -23 -23 -24 -25 -25 -26 -27 -27 -28 -28 -28 -27
-14 -14 -14 -15 -15 -16 -16 -16 -17 -17 -18 -18 -19 -20 -20 -20 -21 -21 -21 -22 -24 -25 -26 -26 -27 -28 -28 -28 -28 -28 -28 -27
-14 -14 -15 -15 -16 -16 -16 -16 -17 -17 -18 -19 -20 -20 -20 -21 -21 -22 -23 -24 -25 -26 -27 -27 -28 -28 -28 -28 -28 -28 -28 -28
-14 -15 -15 -15 -16 -16 -16 -16 -17 -18 -19 -20 -20 -20 -21 -21 -22 -23 -24 -25 -26 -27 -28 -29 -29 -28 -28 -28 -28 -28 -28 -28
-15 -15 -15 -16 -16 -16 -17 -17 -18 -20 -20 -20 -20 -21 -21 -22 -23 -24 -26 -27 -27 -28 -29 -29 -29 -28 -28 -28 -28 -28 -28 -29
-15 -15 -16 -16 -17 -17 -17 -18 -19 -20 -20 -20 -21 -21 -22 -23 -24 -26 -27 -28 -29 -29 -29 -28 -28 -28 -28 -28 -29 -29 -29 -29
-16 -16 -16 -17 -17 -17 -18 -20 -20 -20 -20 -21 -21 -22 -23 -25 -26 -27 -28 -29 -29 -29 -28 -28 -28 -28 -29 -29 -29 -29 -29 -29
-16 -17 -17 -17 -17 -18 -19 -20 -20 -21 -21 -21 -21 -22 -24 -26 -27 -27 -28 -29 -28 -28 -28 -28 -28 -28 -29 -29 -29 -29 -29 -29
-17 -17 -17 -17 -18 -19 -20 -20 -21 -21 -21 -21 -22 -24 -26 -27 -27 -28 -29 -28 -28 -28 -28 -28 -29 -29 -29 -29 -29 -29 -30 -30
-17 -17 -17 -18 -18 -20 -20 -21 -21 -21 -21 -22 -23 -25 -27 -27 -28 -29 -28 -28 -28 -28 -28 -29 -29 -29 -29 -29 -29 -30 -30 -31
-17 -17 -18 -18 -19 -21 -21 -21 -21 -21 -22 -22 -25 -27 -27 -28 -29 -29 -28 -28 -28 -28 -29 -29 -29 -29 -29 -29 -30 -30 -30 -31
-17 -18 -18 -19 -21 -21 -21 -21 -21 -22 -22 -24 -26 -27 -27 -28 -29 -29 -28 -28 -28 -29 -29 -29 -29 -29 -29 -30 -30 -30 -31 -32
-18 -18 -19 -21 -21 -21 -21 -21 -22 -22 -23 -25 -27 -27 -27 -29 -29 -29 -28 -28 -28 -29 -29 -29 -29 -29 -29 -30 -30 -30 -30 -31
Height
5816 5811 5804 5800 5794 5787 5780 5773 5765 5757 5750 5742 5734 5724 5715 5707 5698 5688 5678 5666 5655 5645 5636 5628 5619 5611 5602 5594 5587 5578 5573 5568
5813 5808 5803 5796 5788 5781 5773 5767 5759 5750 5742 5733 5724 5715 5704 5694 5683 5674 5664 5654 5643 5633 5622 5613 5605 5596 5588 5579 5572 5564 5555 5550
5808 5803 5798 5791 5783 5774 5767 5759 5751 5742 5733 5724 5713 5702 5691 5681 5670 5659 5650 5641 5631 5620 5609 5599 5590 5581 5572 5563 5556 5549 5540 5534
5804 5799 5792 5784 5776 5768 5760 5752 5743 5733 5723 5712 5700 5690 5679 5666 5655 5644 5635 5626 5617 5607 5597 5587 5577 5567 5558 5549 5540 5532 5525 5517
5798 5791 5784 5777 5770 5762 5754 5744 5734 5724 5713 5702 5691 5680 5667 5655 5645 5634 5623 5613 5603 5593 5583 5572 5562 5552 5542 5533 5524 5517 5510 5504
5792 5786 5778 5771 5765 5756 5746 5736 5726 5715 5704 5692 5680 5668 5656 5645 5634 5623 5611 5600 5589 5579 5568 5557 5547 5536 5527 5519 5511 5504 5498 5492
5788 5780 5772 5767 5757 5748 5738 5728 5718 5707 5695 5682 5671 5659 5647 5636 5624 5612 5600 5587 5575 5563 5552 5542 5532 5523 5515 5507 5499 5493 5486 5480
5783 5775 5768 5760 5750 5741 5731 5721 5710 5698 5685 5673 5661 5649 5637 5626 5614 5602 5589 5575 5562 5550 5540 5530 5521 5512 5505 5497 5489 5482 5475 5469
5777 5769 5762 5754 5745 5735 5724 5713 5701 5687 5675 5663 5651 5639 5627 5615 5602 5588 5575 5562 5550 5539 5529 5520 5511 5503 5496 5488 5479 5472 5464 5457
5771 5764 5757 5747 5737 5727 5715 5703 5691 5678 5665 5654 5642 5630 5618 5604 5589 5575 5562 5550 5540 5530 5520 5512 5503 5495 5487 5478 5470 5462 5454 5446
5765 5758 5749 5739 5730 5719 5706 5694 5682 5671 5659 5647 5634 5621 5607 5593 5578 5564 5552 5541 5531 5522 5514 5505 5496 5487 5478 5470 5461 5452 5443 5434
5759 5751 5742 5733 5723 5710 5698 5686 5675 5663 5651 5639 5625 5611 5597 5582 5568 5555 5544 5534 5525 5517 5508 5499 5489 5480 5471 5461 5451 5441 5431 5422
5754 5745 5736 5726 5715 5703 5691 5679 5668 5656 5644 5631 5616 5602 5587 5572 5560 5549 5539 5530 5521 5512 5503 5493 5483 5474 5463 5453 5442 5430 5419 5410
5749 5740 5731 5721 5708 5696 5684 5673 5662 5649 5636 5623 5608 5593 5579 5566 5555 5544 5535 5526 5517 5508 5498 5488 5478 5468 5456 5444 5431 5421 5410 5401
5745 5736 5725 5714 5701 5689 5678 5667 5656 5643 5630 5616 5601 5586 5573 5562 5550 5541 5532 5523 5514 5504 5494 5484 5472 5461 5449 5436 5425 5415 5403 5392
5740 5730 5719 5707 5695 5684 5674 5663 5650 5637 5624 5609 5594 5581 5569 5557 5547 5539 5530 5520 5510 5500 5491 5480 5468 5455 5443 5431 5419 5407 5396 5384
5734 5723 5712 5701 5690 5681 5670 5658 5646 5633 5618 5603 5588 5576 5565 5555 5546 5538 5528 5518 5508 5498 5488 5476 5463 5451 5438 5426 5414 5402 5389 5377
5728 5718 5707 5697 5687 5677 5666 5655 5642 5628 5613 5597 5584 5574 5563 5553 5545 5536 5528 5518 5507 5496 5485 5472 5460 5447 5436 5423 5411 5399 5385 5372
5724 5714 5703 5694 5684 5674 5663 5651 5638 5623 5608 5593 5582 5572 5561 5552 5544 5536 5527 5518 5507 5496 5483 5470 5458 5447 5436 5424 5412 5398 5384 5370
Wind_Speed
36 40 41 46 49 53 57 52 48 50 52 54 57 58 59 59 60 61 61 61 59 60 61 62 62 60 58 57 57 57 56 55
35 36 39 46 51 56 51 48 49 51 54 57 58 60 61 61 64 66 66 62 59 61 63 60 58 58 58 59 58 58 58 56
34 37 44 48 54 50 48 50 51 54 57 58 61 63 64 65 68 69 66 61 60 60 58 59 60 60 60 60 59 58 56 55
34 38 43 53 49 47 49 51 54 57 59 62 64 65 68 71 69 64 62 61 59 57 59 60 61 61 61 60 58 55 52 48
33 40 49 50 46 48 50 53 56 58 60 63 64 67 70 67 61 60 61 60 59 61 63 63 62 62 60 57 54 51 47 43
37 47 50 46 47 50 53 55 56 59 61 64 68 70 63 60 60 61 60 62 65 65 64 63 60 58 54 52 49 44 41 41
43 48 45 47 50 52 53 54 57 60 64 67 66 60 59 60 60 62 65 67 68 66 63 58 55 52 48 45 44 42 41 40
39 42 45 48 50 51 52 54 59 63 65 64 60 59 60 62 65 67 68 69 65 60 56 52 49 45 44 44 44 43 42 40
39 44 46 48 48 50 53 58 63 63 62 60 59 61 64 66 68 69 69 66 60 56 51 47 44 43 44 44 44 42 42 44
41 44 46 47 49 52 57 61 62 62 59 59 61 63 66 68 70 70 66 59 54 49 45 42 43 44 45 45 43 43 45 50
41 44 46 48 50 55 59 61 59 56 57 60 62 66 68 70 70 64 58 53 48 42 41 42 45 46 45 44 44 47 50 46
42 45 46 49 53 58 59 59 56 55 58 61 65 67 70 69 64 57 52 46 42 41 42 45 45 44 44 45 49 51 47 45
43 44 47 50 56 57 57 54 54 56 60 63 66 69 69 62 55 51 45 41 40 43 44 44 43 44 45 49 51 49 46 44
42 45 47 53 56 56 54 53 55 59 62 64 67 68 62 53 50 45 40 40 43 44 44 43 44 46 48 51 48 47 41 39
42 45 50 55 55 54 52 53 56 60 62 66 68 63 53 49 46 40 39 42 44 43 43 44 46 48 50 47 44 40 41 40
44 47 53 55 53 52 51 54 59 60 63 66 65 55 49 47 40 38 41 44 43 44 44 46 48 50 46 43 44 44 44 46
45 50 55 54 51 48 50 56 58 60 64 65 57 49 47 42 38 39 42 42 44 44 46 48 50 47 45 46 46 45 50 48
48 52 53 50 46 48 53 55 57 61 63 60 50 47 45 39 37 40 42 41 44 45 48 50 48 47 45 46 44 50 49 48
48 52 48 44 46 49 53 53 58 61 62 52 46 46 44 36 37 39 41 42 45 46 49 51 48 46 45 42 45 47 46 46
Wind_Direction
327 332 330 326 325 325 323 321 320 320 319 319 318 317 316 312 311 312 313 311 311 309 309 309 308 307 306 305 304 302 299 298
327 326 322 322 321 320 321 320 320 319 318 318 316 314 314 315 316 316 313 312 311 310 310 310 310 309 307 306 305 303 300 298
326 320 320 319 317 320 321 320 319 318 317 316 316 317 317 317 316 316 313 312 312 313 312 312 311 310 309 307 305 302 300 297
320 312 315 317 320 322 320 319 318 317 317 318 318 318 318 319 318 317 316 315 314 313 312 311 310 310 309 307 305 303 300 298
306 313 319 319 323 320 318 318 319 319 319 318 318 318 319 319 319 318 317 315 314 313 313 312 311 310 309 307 307 305 305 302
316 317 317 320 320 318 319 319 319 320 319 319 319 320 320 321 321 319 317 316 315 315 313 313 312 311 310 309 309 309 307 304
315 315 316 319 319 320 320 320 321 321 320 320 321 322 324 323 320 319 318 317 317 316 315 314 312 312 312 312 312 311 310 307
316 315 317 320 320 321 322 322 321 320 322 322 325 326 324 323 321 320 320 319 319 317 316 315 315 316 316 316 315 315 312 310
317 317 320 319 321 323 324 323 322 323 324 327 328 327 325 324 323 323 322 321 320 318 319 319 320 320 319 319 317 316 314 312
317 318 321 323 326 326 325 325 325 326 329 330 328 327 326 325 325 324 324 323 323 323 324 324 324 322 322 321 320 317 316 314
319 323 325 327 327 326 326 327 328 330 331 330 329 328 328 328 327 327 328 328 329 329 330 328 326 325 325 323 321 319 319 316
326 329 329 328 328 328 328 328 331 333 331 331 331 331 330 329 330 332 332 333 334 335 333 330 329 328 327 325 324 322 321 318
331 330 329 330 328 329 329 333 335 332 332 333 333 332 332 333 335 335 336 339 339 337 335 333 332 331 329 326 326 326 326 323
331 330 330 328 330 331 333 336 334 334 335 335 335 334 335 337 337 339 343 343 341 340 339 337 336 334 332 331 331 332 330 327
331 330 331 332 333 334 337 336 335 337 336 337 336 336 338 340 341 345 347 345 344 344 342 342 339 337 338 338 338 338 334 334
332 332 334 335 335 337 337 336 339 338 338 338 337 339 342 343 346 349 349 348 348 347 347 345 343 343 344 346 344 342 341 339
334 335 335 335 338 338 337 340 339 340 340 338 340 344 345 346 350 352 352 351 351 350 350 349 348 351 353 351 348 348 344 341
336 335 336 338 340 339 341 340 341 342 341 341 345 347 347 350 353 354 353 354 355 354 354 353 356 359 358 354 355 350 346 346
334 336 338 341 341 341 341 343 344 344 342 346 349 350 350 354 355 355 355 358 358 358 358 359 2 3 3 1 359 354 353 354